GEFSMA_con_probscp_222.txt.gz
Probability
11 9 7 7 6 4 3 3 2 1 0 0 0 0 0 0 0 0 1 3 4 7 10 11 9 6 5 6 8 9 6 5 8 14 19 21 21 20 23 26 26 24 23
12 9 8 8 7 4 3 4 3 1 0 0 0 0 0 0 0 0 0 1 3 6 11 13 11 8 7 7 9 10 9 6 7 12 16 19 20 20 22 24 24 24 25
11 9 8 8 6 4 4 4 3 2 1 1 1 0 0 0 0 0 0 0 2 5 10 12 12 11 10 9 7 8 8 7 6 8 10 14 17 19 20 22 23 23 25
9 9 9 8 6 4 4 4 3 3 3 3 2 1 0 0 0 0 0 1 2 4 6 9 11 12 12 10 7 6 5 5 5 5 6 10 14 17 19 21 23 23 24
10 10 10 9 8 6 5 4 4 4 5 4 3 1 0 0 0 0 0 1 2 3 4 5 8 10 11 10 9 7 5 4 4 5 6 8 12 16 19 21 22 22 21
10 10 10 10 9 8 6 6 5 5 6 5 4 2 1 0 0 0 0 0 1 2 3 4 6 8 8 8 8 9 8 5 4 5 6 7 11 14 17 20 19 18 17
8 7 8 9 8 7 6 7 6 6 6 6 4 2 1 0 0 1 0 0 0 1 2 3 5 6 6 5 6 9 9 7 6 6 6 8 10 13 15 15 14 12 12
7 5 5 6 6 4 4 5 5 5 5 5 4 2 1 0 0 0 0 0 0 0 1 3 4 4 4 3 4 6 7 7 8 7 6 7 11 13 13 11 10 10 10
8 7 5 5 5 4 2 2 3 4 4 4 3 1 0 0 0 0 0 0 0 0 1 2 3 4 4 4 4 4 4 6 7 7 6 8 10 13 12 10 8 9 11
9 8 7 7 6 5 3 2 3 3 3 3 2 1 0 0 0 0 0 0 0 0 0 1 3 5 6 6 6 5 4 4 4 5 6 6 7 10 10 8 7 8 9
8 8 9 10 9 6 4 3 3 3 4 4 3 1 0 0 0 0 0 0 0 0 0 0 2 4 5 5 5 5 4 3 3 4 4 4 4 6 7 6 5 5 5
6 8 10 12 11 7 4 3 4 4 5 5 4 2 1 0 0 0 0 0 0 0 0 0 0 2 3 4 3 3 3 2 1 2 3 3 2 3 4 3 3 4 4
6 7 9 12 11 8 5 5 6 6 6 6 5 3 1 0 0 0 0 0 0 0 0 0 0 1 2 2 2 2 2 1 0 1 2 2 1 0 1 1 1 3 3
7 7 8 9 10 9 7 7 7 6 6 5 4 2 0 0 0 0 0 0 0 0 0 0 0 0 1 1 2 3 3 1 0 0 1 1 0 0 0 0 1 2 2
8 8 7 8 9 9 8 8 6 5 4 3 2 0 0 0 0 0 0 0 0 0 0 0 0 0 0 1 2 3 3 1 0 0 0 0 0 0 0 0 0 1 1
6 7 7 8 8 8 7 6 5 3 2 1 0 0 0 0 0 0 0 0 0 0 0 0 0 0 0 0 1 2 3 2 1 0 0 0 0 0 0 0 0 0 0
4 4 5 6 6 5 5 5 4 2 1 0 0 0 0 0 0 0 0 0 0 0 0 0 0 0 0 0 0 1 2 2 1 0 0 0 0 0 0 0 0 0 0
2 3 3 4 4 3 3 3 3 1 0 0 0 0 0 0 0 0 0 0 0 0 0 0 0 0 0 0 0 0 1 1 0 0 0 0 0 0 0 0 0 0 0
3 3 3 3 3 3 3 3 3 1 0 0 0 0 0 0 0 0 0 0 0 0 0 0 0 0 0 0 0 0 0 0 0 0 0 0 0 0 0 0 0 0 0
3 3 3 3 3 3 3 3 3 2 0 0 0 0 0 0 0 0 0 0 0 0 0 0 0 0 0 0 0 0 1 1 1 0 0 0 0 0 0 0 0 0 0
1 2 2 2 3 3 3 3 2 1 0 0 0 0 0 0 0 0 0 0 0 0 0 0 0 0 0 0 0 0 1 1 1 0 0 0 0 0 0 0 0 0 0
0 1 1 1 1 2 2 1 1 0 0 0 0 0 0 0 0 0 0 0 0 0 0 0 0 0 0 0 0 0 0 0 0 0 0 0 0 0 0 0 0 0 0
0 0 0 0 0 1 1 0 0 0 0 0 0 0 0 0 0 0 0 0 0 0 0 0 0 0 0 0 0 0 0 0 0 0 0 0 0 0 0 0 0 0 0
0 0 0 0 0 0 0 0 0 0 0 0 0 0 0 0 0 0 0 0 0 0 0 0 0 0 0 0 0 0 0 0 0 0 0 0 0 0 0 0 0 0 0
0 0 0 0 0 0 0 0 0 0 0 0 0 0 0 0 0 0 0 0 0 0 0 0 0 0 0 0 0 0 0 0 0 0 0 0 0 0 0 0 0 0 0
0 0 0 0 0 0 0 0 0 0 0 0 0 0 0 0 0 0 0 0 0 0 0 0 0 0 0 0 0 0 0 0 0 0 0 0 0 0 0 0 0 0 0

GEFSMA_con_probscp_228.txt.gz
Probability
18 15 13 14 13 12 12 11 9 7 7 9 7 3 1 0 1 1 2 4 8 12 12 11 11 9 10 11 10 9 9 8 9 11 13 15 17 17 16 15 14 17 20
15 15 14 13 13 12 11 10 8 7 6 7 6 4 1 0 0 1 1 2 6 9 11 11 10 9 9 10 9 7 8 8 9 9 10 12 14 15 16 17 16 16 19
14 15 15 12 11 11 9 7 6 6 5 4 4 3 1 0 0 0 0 1 2 5 7 9 9 8 7 8 7 5 5 7 7 7 7 7 9 10 13 17 17 17 17
13 15 14 11 10 10 8 5 5 5 4 3 3 3 2 1 0 0 0 0 1 3 5 6 8 8 6 4 5 5 4 5 6 7 7 6 7 8 10 14 15 15 15
13 14 13 11 9 8 7 6 5 5 4 3 3 3 2 1 0 0 0 1 2 3 3 4 5 5 3 2 3 5 4 4 6 8 10 10 9 10 10 12 13 13 13
12 12 11 10 9 7 6 5 4 4 3 3 3 3 2 1 0 0 0 1 2 3 2 2 3 3 1 1 2 4 5 5 6 9 12 13 13 12 11 10 11 12 12
8 8 7 7 7 6 4 4 3 3 3 3 3 2 1 1 0 0 1 2 3 4 3 3 3 3 2 2 2 2 4 6 6 7 10 13 14 14 12 10 10 11 12
5 4 4 5 5 4 4 4 4 3 3 3 3 2 1 1 0 0 1 2 4 5 4 4 5 5 5 5 3 3 4 6 6 5 7 11 13 13 13 12 10 9 10
3 3 3 3 3 3 3 5 5 4 3 4 4 2 1 0 0 0 1 1 3 3 3 4 4 5 5 5 4 3 5 7 7 6 8 11 12 12 13 13 10 9 9
2 2 1 2 3 2 2 5 6 5 4 3 3 2 1 0 0 0 0 0 1 1 1 2 3 4 3 2 2 3 4 6 6 6 7 10 12 12 12 12 11 10 9
1 1 0 1 2 2 1 3 4 4 3 3 3 2 1 0 0 0 0 0 0 0 0 0 1 2 2 1 1 2 3 4 4 4 5 7 9 10 10 12 12 12 12
0 0 0 0 1 2 2 3 4 4 4 4 4 4 3 1 0 0 0 0 0 0 0 0 0 1 1 0 0 1 2 3 2 2 2 3 5 7 9 11 12 14 14
0 0 0 0 0 1 3 5 6 6 6 6 6 6 5 3 1 0 0 0 0 0 0 0 0 0 0 0 0 0 1 2 1 1 0 0 2 5 8 9 9 11 12
1 1 0 0 0 0 2 6 8 8 8 8 7 6 6 5 3 1 0 0 0 0 0 0 0 0 0 0 0 0 0 1 1 0 0 0 0 2 4 5 6 6 6
1 2 2 1 0 1 2 5 7 7 7 7 6 6 5 5 3 2 1 0 0 0 0 0 0 0 0 0 0 0 0 0 0 0 0 0 0 0 1 1 2 2 2
2 3 3 2 1 1 3 4 5 5 5 4 4 4 4 4 4 3 1 0 0 0 0 0 0 0 0 0 0 0 0 0 0 0 0 0 0 0 0 0 0 0 0
4 3 3 3 2 2 3 3 3 3 3 3 3 3 3 3 3 2 1 0 0 0 0 0 0 0 0 0 0 0 0 0 0 0 0 0 0 0 0 0 0 0 0
3 3 2 2 2 3 4 4 3 3 3 3 2 2 2 1 1 1 1 0 0 0 0 0 0 0 0 0 0 0 0 0 0 0 0 0 0 0 0 0 0 0 0
1 1 1 1 1 2 4 4 4 3 2 2 1 0 0 0 0 0 0 0 0 0 0 0 0 0 0 0 0 0 0 0 0 0 0 0 0 0 0 0 0 0 0
0 0 0 0 0 1 1 2 1 1 1 1 0 0 0 0 0 0 0 0 0 0 0 0 0 0 0 0 0 0 0 0 0 0 0 0 0 0 0 0 0 0 0
0 0 0 0 0 0 0 0 0 0 0 0 0 0 0 0 0 0 0 0 0 0 0 0 0 0 0 0 0 0 0 0 0 0 0 0 0 0 0 0 0 0 0
0 0 0 0 0 0 0 0 0 0 0 0 0 0 0 0 0 0 0 0 0 0 0 0 0 0 0 0 0 0 0 0 0 0 0 0 0 0 0 0 0 0 0
0 0 0 0 0 0 0 0 0 0 0 0 0 0 0 0 0 0 0 0 0 0 0 0 0 0 0 0 0 0 0 0 0 0 1 0 0 0 0 0 0 0 0
0 0 0 0 0 0 0 0 0 0 0 0 0 0 0 0 0 0 0 0 0 0 0 0 0 0 0 0 0 0 0 0 0 0 0 0 0 0 0 0 0 0 0
0 0 0 0 0 0 0 0 0 0 0 0 0 0 0 0 0 0 0 0 0 0 0 0 0 0 0 0 0 0 0 0 0 0 0 0 0 0 0 0 0 0 0
0 0 0 0 0 0 0 0 0 0 0 0 0 0 0 0 0 0 0 0 0 0 0 0 0 0 0 0 0 0 0 0 0 0 0 0 0 0 0 0 0 0 0

GEFSMA_con_probscp_234.txt.gz
Probability
22 22 22 21 20 20 19 16 13 10 8 7 5 4 3 4 5 5 5 8 9 9 7 4 4 5 7 7 8 11 12 11 12 14 15 14 13 13 12 11 13 16 15
21 23 23 23 21 20 20 17 13 10 8 6 4 4 4 5 5 6 6 7 8 8 7 5 5 6 8 8 9 11 12 11 11 12 13 13 14 15 14 13 14 15 17
20 22 23 24 23 21 19 17 13 10 8 6 5 5 7 8 7 7 7 6 5 6 7 7 7 9 9 9 9 10 11 11 11 11 11 11 12 14 15 14 13 14 15
17 19 21 23 24 22 19 16 14 11 9 7 7 7 9 11 9 8 8 7 5 6 7 8 10 11 11 9 8 9 11 12 12 11 10 9 9 10 12 13 11 11 11
16 17 19 22 24 25 22 17 15 14 12 10 9 9 10 11 12 10 9 8 7 6 8 10 11 11 11 9 7 8 9 11 10 8 7 7 7 8 9 10 9 9 9
17 16 16 20 23 25 24 21 18 17 16 14 12 10 10 10 11 11 10 9 8 7 9 12 12 11 11 9 8 7 8 9 8 5 4 5 7 7 6 6 5 7 8
15 13 14 18 22 24 25 24 21 19 18 16 14 12 11 11 11 12 11 9 9 9 10 11 12 13 12 11 9 9 9 9 8 6 4 4 7 7 5 4 4 5 6
12 10 12 17 21 24 26 25 23 20 19 17 16 14 12 11 11 11 11 10 10 11 10 10 12 14 14 14 13 13 13 12 11 9 6 5 6 6 5 5 5 5 5
10 10 12 16 20 23 24 24 22 21 20 19 18 17 15 13 11 11 11 12 13 12 10 9 10 13 16 17 16 15 15 15 14 14 12 10 8 7 6 5 5 6 6
11 12 14 15 18 20 20 19 20 21 21 19 19 20 19 15 13 11 11 12 13 12 10 9 10 12 16 18 17 14 13 14 15 15 15 15 12 10 8 6 5 5 6
12 14 14 14 15 16 16 16 18 20 20 18 19 21 19 16 12 10 9 9 11 10 10 11 11 12 15 17 16 12 10 11 12 12 13 15 15 13 11 8 5 4 4
11 12 13 13 14 15 16 16 16 16 16 16 17 18 16 12 9 8 8 8 8 9 10 11 11 11 13 14 14 10 6 6 7 7 8 10 12 13 12 9 6 4 4
8 10 11 12 12 13 15 15 14 13 13 14 15 15 12 10 7 7 7 7 7 8 8 8 9 10 11 12 11 7 4 3 3 3 4 5 7 9 10 9 7 5 4
7 8 9 9 10 11 12 13 12 12 12 13 14 13 11 9 7 7 7 7 7 7 6 7 8 9 9 9 8 6 4 2 1 1 1 2 3 4 5 6 5 4 2
6 6 7 8 8 8 10 11 11 11 12 13 12 12 10 9 8 7 7 8 7 7 6 6 7 8 8 7 6 6 5 2 0 0 0 1 2 2 2 2 2 1 1
6 6 7 8 7 7 8 9 9 10 11 11 11 10 10 10 9 8 8 8 9 8 7 6 7 8 8 7 5 6 5 2 1 0 0 0 1 1 0 0 0 0 0
8 8 8 8 7 6 6 7 7 7 8 7 7 8 9 9 10 9 8 8 10 10 8 7 7 10 11 9 6 5 4 3 2 1 0 0 0 0 0 0 0 0 0
7 7 7 7 5 4 4 4 4 4 4 4 4 5 7 8 9 9 9 9 10 10 9 7 9 11 13 10 7 5 3 3 3 1 0 0 0 0 0 0 0 0 0
7 7 6 5 4 3 3 3 3 3 3 3 3 3 4 6 7 8 9 10 9 8 6 6 7 9 10 8 5 3 3 3 2 1 0 0 0 0 0 0 0 0 0
9 7 5 4 3 2 1 1 3 3 3 3 3 3 3 4 5 6 8 9 8 6 4 3 4 5 6 5 4 3 2 3 4 2 1 1 0 0 0 0 0 0 0
8 7 4 2 1 1 0 1 2 3 3 3 3 3 3 3 3 4 5 5 5 5 4 3 3 3 4 4 3 2 2 3 5 4 3 3 2 1 1 1 0 0 0
6 5 3 1 0 0 0 1 2 3 3 3 3 3 3 3 1 1 1 1 2 2 3 3 3 3 3 4 3 1 1 2 3 3 4 4 3 4 3 2 0 0 0
4 4 3 1 0 0 0 0 1 3 3 3 3 3 3 2 1 0 0 0 0 1 1 2 3 3 3 3 2 1 1 1 1 1 2 3 3 3 3 1 0 0 0
4 5 4 2 0 0 0 0 1 2 3 2 2 2 2 2 1 0 0 0 0 0 0 1 1 2 2 2 1 1 1 0 0 0 0 1 2 1 1 0 0 0 0
5 4 4 2 1 0 0 0 0 1 1 1 1 1 1 1 0 0 0 1 1 1 0 0 0 1 1 1 1 1 1 0 0 0 0 0 0 0 0 1 1 0 0
4 4 3 3 2 1 0 0 0 0 0 1 0 0 0 0 0 0 1 2 2 2 1 0 0 0 0 0 0 1 0 0 0 0 0 0 0 0 1 2 2 1 0

GEFSMA_con_probscp_240.txt.gz
Probability
19 19 20 20 19 17 18 21 20 16 13 11 8 6 5 4 4 5 8 13 19 21 19 15 11 8 7 7 9 12 14 15 16 18 17 15 14 14 13 13 14 14 12
19 19 20 20 18 16 18 20 20 19 16 12 8 6 4 4 6 8 10 12 16 19 19 16 13 10 7 8 10 13 15 16 17 18 16 14 13 13 13 15 15 14 13
19 19 18 18 17 17 19 20 20 19 17 12 8 6 5 6 8 10 10 11 12 14 16 17 16 14 10 9 12 14 16 19 20 18 16 13 12 12 13 15 16 15 14
19 19 17 17 19 19 19 19 18 18 15 11 9 8 9 10 11 12 11 9 9 9 11 15 18 18 16 14 13 15 16 19 19 17 15 13 12 12 13 14 16 16 15
18 18 17 18 21 20 17 14 15 16 14 11 10 10 12 14 14 13 12 9 7 7 7 11 17 20 20 18 16 14 15 16 16 16 15 14 14 14 13 14 14 15 15
17 16 16 17 20 19 14 12 13 14 14 13 10 9 12 14 15 15 14 11 10 8 7 9 14 18 19 19 16 15 16 16 16 15 15 16 16 16 15 13 12 11 12
18 17 16 18 19 16 15 15 14 13 13 13 13 10 10 12 15 16 15 14 12 11 10 11 13 16 16 16 15 15 16 17 17 16 15 17 17 16 15 12 9 7 7
18 17 18 19 19 16 15 16 15 12 11 12 13 11 9 10 12 14 15 14 13 13 13 13 13 14 15 14 14 15 16 17 17 17 17 17 17 15 14 11 7 5 5
15 16 18 18 17 15 14 14 14 12 11 11 11 11 8 8 9 10 13 14 14 14 13 12 12 12 13 14 15 16 16 16 16 17 18 17 15 14 14 11 6 3 2
15 16 17 17 15 13 11 11 12 12 11 10 10 10 9 9 9 9 10 13 14 13 12 11 10 10 10 13 15 15 15 15 15 16 16 15 14 13 13 11 7 4 3
16 16 17 16 14 11 10 11 11 11 10 10 11 10 11 11 10 9 9 11 12 12 13 12 12 10 9 9 11 13 14 14 13 14 14 14 14 14 13 10 7 7 6
16 14 14 14 13 11 11 12 11 10 10 11 11 11 11 11 11 8 7 8 9 11 12 13 13 11 8 7 7 9 11 10 9 11 13 14 14 14 12 10 8 7 7
14 12 11 12 11 10 11 13 12 11 10 10 12 11 11 11 10 7 5 5 7 9 10 11 11 10 8 7 6 5 6 5 5 7 10 12 13 13 12 10 9 7 6
11 9 9 10 10 10 11 13 12 11 10 10 10 10 10 10 8 6 5 4 5 6 7 8 8 9 9 8 5 4 4 3 2 3 4 6 9 11 11 10 9 7 5
10 9 9 10 11 11 12 12 12 12 11 9 8 8 9 9 8 6 6 5 5 4 4 6 7 7 8 8 6 5 5 3 1 1 1 2 4 7 7 7 6 5 4
11 11 11 11 11 11 11 11 10 10 10 8 7 7 7 7 6 6 6 5 4 2 3 5 7 7 7 6 5 6 7 4 1 0 0 0 1 2 3 3 3 2 1
12 12 11 11 10 9 8 7 6 5 5 5 5 4 3 4 4 4 4 4 4 3 3 4 5 6 6 6 5 6 6 4 2 0 0 0 0 0 1 1 1 0 0
11 11 10 9 7 6 5 4 3 2 1 2 3 2 0 1 3 3 3 3 3 3 3 2 2 4 5 5 5 5 5 5 3 1 0 0 0 0 0 0 0 0 0
10 9 8 7 5 4 3 3 2 1 0 1 2 2 1 1 2 3 3 3 3 3 3 2 1 1 3 4 4 4 5 5 4 2 1 0 0 0 0 0 0 0 0
9 8 7 6 4 3 2 2 1 1 0 0 1 2 2 2 3 3 3 3 4 4 3 3 1 1 3 3 3 3 4 5 4 3 1 0 0 0 0 0 0 0 0
7 7 6 5 3 1 1 1 0 0 0 0 0 1 2 2 2 2 3 3 4 4 4 3 3 3 3 3 3 4 4 4 4 2 1 0 0 0 0 0 0 0 0
6 6 6 4 2 1 0 0 0 0 0 0 0 0 1 1 1 1 1 2 3 3 3 3 3 3 2 3 4 4 4 3 2 2 1 0 0 0 0 0 0 0 0
6 7 7 5 3 2 1 0 0 0 0 0 0 0 0 0 0 0 0 1 1 1 2 1 1 1 1 1 1 2 2 1 1 1 1 0 0 0 0 0 0 0 0
7 9 10 8 5 3 1 0 0 0 0 0 0 0 0 0 0 0 1 2 2 1 1 0 0 0 0 0 0 1 1 0 0 0 0 0 0 0 0 0 0 0 0
7 8 9 8 7 3 1 0 0 0 0 0 0 0 0 0 0 0 1 2 3 2 1 0 0 0 0 0 1 1 0 0 0 0 0 0 0 0 0 0 0 0 0
6 6 6 7 8 5 2 0 0 0 0 0 1 1 1 0 0 0 0 1 3 2 1 0 0 0 0 0 1 0 0 0 0 0 0 0 0 0 0 0 0 0 0

GEFSMA_con_probscp_246.txt.gz
Probability
9 8 9 9 5 2 3 4 4 3 4 5 7 7 6 4 4 3 3 5 12 17 18 17 16 16 17 14 11 11 13 16 17 14 10 8 9 10 9 9 11 9 8
8 8 9 10 7 3 3 4 3 3 3 3 4 5 4 4 4 3 3 5 11 17 19 18 16 15 15 15 12 11 12 14 16 16 12 10 10 10 10 11 12 11 10
5 6 7 8 7 6 5 5 4 2 1 1 1 2 3 3 3 4 4 5 8 12 15 15 14 13 14 14 13 12 12 13 14 15 14 12 11 10 10 11 12 12 12
3 3 4 5 5 6 6 5 5 3 1 0 0 1 1 1 2 4 5 5 5 7 8 10 12 13 12 12 12 12 11 10 10 11 11 12 12 11 9 9 10 12 14
4 4 4 4 4 4 4 5 5 4 1 0 0 0 0 0 1 2 3 3 3 3 4 6 10 11 11 10 11 10 9 8 7 7 7 10 12 12 12 10 10 12 14
5 5 5 4 3 3 4 4 4 3 1 1 1 0 0 0 0 1 1 1 1 1 2 3 7 9 10 9 10 9 8 7 7 6 6 8 12 14 14 13 10 10 10
5 5 4 3 3 4 4 4 3 1 1 2 1 0 0 0 0 0 0 1 1 1 2 2 4 7 8 8 9 9 9 9 8 7 7 9 13 15 14 13 10 8 8
4 4 3 3 3 3 3 2 1 0 1 1 1 0 0 0 0 0 0 0 1 2 3 3 3 5 6 7 9 10 11 10 9 8 9 10 12 13 12 11 10 8 6
2 4 5 5 4 4 4 2 1 0 0 0 0 0 0 0 0 0 0 0 0 1 2 2 1 2 4 7 9 10 11 11 10 9 9 10 10 9 9 10 10 9 8
2 5 7 7 5 5 5 4 2 1 0 0 0 0 0 0 0 0 0 0 0 0 0 0 0 1 3 6 8 8 9 10 10 10 10 9 8 7 7 8 9 9 9
3 4 5 6 5 6 6 5 3 2 1 0 0 0 0 0 0 0 0 0 0 0 0 0 0 0 2 4 6 6 7 8 8 9 11 10 9 7 6 7 9 10 10
2 2 3 4 4 4 5 4 3 3 2 1 0 0 0 0 0 0 0 0 0 0 0 0 0 0 0 1 3 5 6 6 5 6 9 11 10 8 7 8 8 9 9
1 1 1 2 3 3 4 3 3 2 2 1 0 0 0 0 0 0 0 0 0 0 0 0 0 0 1 1 1 3 4 4 4 4 5 8 9 9 9 8 8 8 8
0 0 0 1 1 2 2 3 3 2 1 0 0 0 0 0 0 0 0 0 0 0 0 0 0 0 1 2 1 1 1 1 2 2 2 4 7 8 8 9 7 6 6
0 0 0 0 0 1 1 1 2 2 1 0 0 0 0 0 0 0 0 0 0 0 0 0 0 0 1 1 1 0 0 0 1 1 1 3 5 5 6 8 7 5 4
0 0 0 0 0 0 0 0 1 1 0 0 0 0 0 0 0 0 0 0 0 0 0 0 0 0 0 0 0 0 0 0 0 0 1 2 2 2 3 5 5 3 2
0 0 0 0 0 0 0 0 0 0 0 0 0 0 0 0 0 0 0 0 0 0 0 0 0 0 0 0 0 0 0 0 0 0 0 1 1 0 1 1 1 1 1
0 0 0 0 0 0 0 0 0 0 0 0 0 0 0 0 0 0 0 0 0 0 0 0 0 0 0 0 0 0 0 0 0 0 0 0 0 0 0 0 0 0 0
0 0 0 0 0 0 0 0 0 0 0 0 0 0 0 0 0 0 0 0 0 0 0 0 0 0 0 0 0 0 0 0 0 0 0 0 0 0 0 0 0 0 0
0 0 0 0 0 0 0 0 0 0 0 0 0 0 0 0 0 0 0 0 0 0 0 0 0 0 0 0 0 0 0 0 0 0 0 0 0 0 0 0 0 0 0
0 0 0 0 0 0 0 0 0 0 0 0 0 0 0 0 0 0 0 0 0 0 0 0 0 0 0 0 0 0 0 0 0 0 0 0 0 0 0 0 0 0 0
0 0 0 0 0 0 0 0 0 0 0 0 0 0 0 0 0 0 0 0 0 0 0 0 0 0 0 0 0 0 0 0 0 0 0 0 0 1 0 0 0 0 0
0 0 0 0 0 0 0 0 0 0 0 0 0 0 0 0 0 0 0 0 0 0 0 0 0 0 0 0 0 0 0 0 0 0 0 0 0 0 0 0 0 0 0
0 0 0 0 0 0 0 0 0 0 0 0 0 0 0 0 0 0 0 0 0 0 0 0 0 0 0 0 0 0 0 0 0 0 0 0 0 0 0 0 0 0 0
0 0 1 1 1 1 0 0 0 0 0 0 0 0 0 0 0 0 0 0 0 0 0 0 0 0 0 0 0 0 0 0 0 0 0 0 0 0 0 0 0 0 0
0 1 2 2 2 2 1 0 0 0 0 0 0 0 0 0 0 0 0 0 0 0 0 0 0 0 0 0 0 0 0 0 0 0 0 0 0 0 0 0 0 0 0

GEFSMA_con_probscp_252.txt.gz
Probability
9 10 11 10 7 6 5 6 6 3 1 2 3 3 3 4 5 5 6 8 9 11 12 8 6 7 11 13 11 9 9 10 10 10 10 10 11 13 14 13 12 12 11
6 7 7 6 5 4 4 4 4 3 1 1 1 2 2 2 3 4 4 6 7 9 11 10 7 8 11 13 12 9 8 8 8 9 10 11 13 16 16 14 13 12 10
4 4 4 3 3 3 3 3 3 3 2 1 1 2 2 1 1 2 2 3 3 4 7 9 8 8 10 12 12 10 8 6 5 6 9 11 13 16 17 15 13 12 10
4 4 3 3 3 3 3 3 3 3 3 3 3 3 2 1 0 0 1 1 1 1 2 5 7 7 8 9 11 12 10 6 5 6 9 11 12 15 16 15 14 12 11
4 4 4 3 3 3 3 3 3 3 3 3 3 3 2 1 0 0 0 0 0 0 1 2 4 5 5 7 10 12 12 9 8 9 11 11 11 13 15 15 13 12 11
4 4 3 3 3 3 3 3 3 3 3 3 3 2 2 1 0 0 0 0 0 0 1 2 3 4 4 5 7 9 12 13 11 11 10 9 9 11 13 13 10 10 10
3 3 3 3 3 3 3 3 3 4 4 2 1 1 1 0 0 0 0 0 0 0 1 2 3 3 3 3 4 6 11 13 12 10 9 8 8 10 11 10 9 9 9
1 2 3 3 3 3 3 3 4 4 4 2 0 0 0 0 0 0 0 0 0 0 0 1 2 2 3 3 2 4 9 12 11 9 9 9 9 9 8 9 9 9 8
1 1 2 3 3 3 3 3 3 3 2 1 0 0 0 0 0 0 0 0 0 0 0 0 1 1 1 2 2 3 7 12 12 10 9 10 11 10 8 8 8 9 9
2 1 1 1 2 3 3 3 3 1 1 0 0 0 0 0 0 0 0 0 0 0 0 0 0 1 1 1 1 2 4 8 10 10 10 12 12 11 9 7 7 8 9
2 1 0 0 1 1 2 3 3 1 0 0 0 0 0 0 0 0 0 0 0 0 0 0 0 0 0 0 0 0 1 3 6 8 10 12 13 13 11 10 8 8 9
2 1 0 0 0 0 1 2 2 1 0 0 0 1 0 0 0 0 0 0 0 0 0 0 0 0 0 0 0 0 0 0 2 4 6 9 11 12 12 11 9 7 7
1 0 0 0 0 0 0 1 1 1 1 1 1 1 0 0 0 0 0 0 0 0 0 0 0 0 0 0 0 0 0 0 0 1 2 5 7 8 9 9 8 6 4
0 0 0 0 0 0 0 0 0 0 1 2 1 0 0 0 0 0 0 0 0 0 0 0 0 0 0 0 0 0 0 0 0 0 0 2 4 5 6 7 6 3 2
0 0 0 1 0 0 0 0 0 0 1 1 1 0 0 0 0 0 0 0 0 0 0 0 0 0 0 0 0 0 0 0 0 0 0 0 2 3 4 4 3 1 1
0 0 0 0 0 0 0 0 0 0 0 0 0 0 0 0 0 0 0 0 0 0 0 0 0 0 0 0 0 0 0 0 0 0 0 0 0 1 1 1 1 0 0
0 0 0 0 0 0 0 0 0 0 0 0 0 0 0 0 0 0 0 0 0 0 0 0 0 0 0 0 0 0 0 0 0 0 0 0 0 0 0 0 0 0 0
0 0 0 0 0 0 0 0 0 0 0 0 0 0 0 0 0 0 0 0 0 0 0 0 0 0 0 0 0 0 0 0 0 0 0 0 0 0 0 0 0 0 0
0 0 0 0 0 0 0 0 0 0 0 0 0 0 0 0 0 0 0 0 0 0 0 0 0 0 0 0 0 0 0 0 0 0 0 0 0 0 0 0 0 0 0
0 0 0 0 0 0 0 0 0 0 0 0 0 0 0 0 0 0 0 0 0 0 0 0 0 0 0 0 0 0 0 0 0 0 0 0 0 0 0 0 0 0 0
0 0 0 0 0 0 0 0 0 0 0 0 0 0 0 0 0 0 0 0 0 0 0 0 0 0 0 0 0 0 0 0 0 0 0 0 0 0 0 0 0 0 0
0 0 0 0 0 0 0 0 0 0 0 0 0 0 0 0 0 0 0 0 0 0 0 0 0 0 0 0 0 0 0 0 0 0 0 0 0 0 0 0 0 0 0
0 0 0 0 0 0 0 0 0 0 0 0 0 0 0 0 0 0 0 0 0 0 0 0 0 0 0 0 0 0 0 0 0 0 0 0 0 0 0 0 0 0 0
0 0 0 0 0 0 0 0 0 0 0 0 0 0 0 0 0 0 0 0 0 0 0 0 0 0 0 0 0 0 0 0 0 0 0 0 0 0 0 0 0 0 0
0 0 0 0 0 0 0 0 0 0 0 0 0 0 0 0 0 0 0 0 0 0 0 0 0 0 0 0 0 0 0 0 0 0 0 0 0 0 0 0 0 0 0
0 0 0 0 0 0 0 0 0 0 0 0 0 0 0 0 0 0 0 0 0 0 0 0 0 0 0 0 0 0 0 0 0 0 0 0 0 0 0 1 1 1 0

GEFSMA_con_probscp_258.txt.gz
Probability
11 11 10 9 10 11 12 10 8 6 5 4 4 3 3 5 6 8 11 12 12 9 7 6 4 4 5 7 8 8 7 7 8 8 6 5 4 4 4 6 6 6 6
11 10 9 8 9 10 11 10 8 7 5 4 3 3 3 5 7 9 11 12 11 8 6 6 5 4 4 7 9 9 7 5 6 7 7 6 6 5 4 5 5 5 6
9 8 7 7 8 9 11 10 9 9 7 5 4 4 5 6 8 8 9 9 8 6 5 6 6 6 5 7 10 10 9 7 7 7 7 8 9 7 5 3 3 5 6
7 7 7 6 7 9 11 10 9 10 9 6 5 4 5 6 7 6 5 5 5 5 5 5 6 8 7 7 9 10 11 12 12 10 9 9 10 9 6 4 3 4 5
6 6 6 6 6 8 11 11 11 11 9 6 4 3 3 4 5 4 3 2 2 2 3 3 5 7 7 8 9 10 11 14 15 13 12 11 12 10 8 5 3 3 3
7 6 7 8 8 8 11 12 12 10 8 5 4 3 3 3 4 4 3 2 0 0 1 2 4 6 7 8 10 10 10 12 14 15 14 14 14 12 9 6 4 3 3
9 8 8 10 10 9 10 12 13 12 8 5 4 4 4 3 4 4 4 2 1 1 1 1 3 6 8 8 9 9 8 10 12 13 14 15 16 13 9 6 6 7 8
10 9 10 10 10 10 11 14 15 14 11 7 5 5 5 4 3 3 3 1 1 1 2 2 4 6 8 9 9 7 7 9 10 11 12 13 14 13 11 8 7 10 12
11 10 10 11 10 9 10 13 14 13 11 8 7 7 6 5 3 2 1 1 1 1 2 3 5 6 8 9 9 6 6 8 8 8 9 11 11 12 12 10 8 11 13
11 9 8 9 8 7 7 9 10 11 10 10 10 10 8 6 4 2 1 2 2 1 1 2 4 5 8 9 8 5 4 6 7 7 8 9 10 10 10 9 9 11 13
12 8 4 4 5 5 5 6 8 9 9 10 11 12 10 8 5 2 2 3 2 1 1 1 2 3 6 8 6 3 1 2 4 5 7 8 9 9 8 8 9 11 12
13 8 3 3 4 5 5 7 8 8 7 9 12 13 12 9 6 4 4 4 2 1 1 1 1 2 4 5 4 1 0 0 1 3 4 5 7 8 9 9 10 11 11
13 10 7 7 8 8 8 9 9 8 7 8 11 14 13 9 7 5 5 4 3 1 0 0 0 1 3 3 2 1 0 0 0 1 1 2 4 6 8 9 10 10 10
12 11 11 12 12 10 9 9 9 9 8 8 9 12 12 9 7 7 6 5 4 1 0 0 0 1 2 2 1 0 0 0 0 0 0 1 2 4 5 6 7 7 8
11 11 11 12 11 9 9 9 9 9 8 7 7 9 10 8 8 8 6 6 4 1 0 0 0 1 2 2 1 0 0 0 0 0 0 0 1 2 3 4 4 4 5
10 9 9 7 6 5 6 7 8 8 7 7 7 7 7 7 7 7 5 4 3 1 0 0 0 0 1 1 0 0 0 0 0 0 0 0 0 1 2 2 3 3 3
9 7 5 4 2 1 2 4 6 6 6 6 6 5 5 4 4 4 4 3 3 1 0 0 0 0 0 0 1 1 1 0 0 0 0 0 0 0 1 1 1 2 2
7 5 3 2 1 0 1 2 3 3 3 3 3 3 2 1 1 2 3 3 3 2 0 0 0 0 0 0 1 1 1 0 0 0 0 0 0 0 0 0 0 1 1
6 4 2 2 1 0 0 1 1 1 1 1 1 1 0 0 0 1 3 3 3 2 0 0 0 0 0 0 0 1 0 0 0 0 0 0 0 0 0 0 0 0 0
3 2 1 1 1 0 0 0 0 0 0 0 0 0 0 0 0 1 2 3 3 2 1 0 0 1 1 1 1 1 1 1 1 0 0 0 0 0 0 0 0 0 0
2 1 1 0 0 0 0 0 0 0 0 0 0 0 0 0 0 0 1 2 3 2 1 1 2 2 2 2 2 2 1 1 1 1 1 1 2 1 1 1 0 0 0
2 2 1 1 1 1 0 0 0 0 0 0 0 0 0 0 0 0 0 1 1 2 2 2 3 3 3 3 2 1 0 1 1 2 2 2 2 3 3 2 1 0 0
3 3 3 3 3 2 1 0 0 0 0 0 0 0 0 0 0 0 0 0 0 1 1 2 3 3 4 4 3 1 1 1 2 1 1 1 2 3 3 2 1 0 0
4 4 4 3 3 2 1 0 0 0 0 0 0 0 0 0 0 0 0 0 0 0 0 1 2 2 3 4 3 2 2 2 2 1 0 0 0 1 1 1 0 0 0
4 4 3 2 1 1 0 0 0 0 0 0 0 0 0 0 0 0 0 1 2 1 0 0 1 1 1 1 2 3 3 3 2 0 0 0 0 0 0 0 0 0 0
2 2 1 0 0 0 0 0 0 0 0 0 0 0 0 0 0 0 1 2 4 2 1 0 0 0 0 0 1 2 3 3 2 1 0 0 0 0 0 0 0 0 0